<?xml version="1.0"?>
<gpx xmlns="http://www.topografix.com/GPX/1/1" xmlns:xsi="http://www.w3.org/2001/XMLSchema-instance" version="1.1" creator="GPX RubyGem 1.0.0 -- http://dougfales.github.io/gpx/" xsi:schemaLocation="http://www.topografix.com/GPX/1/1 http://www.topografix.com/GPX/1/1/gpx.xsd">
  <metadata>
    <name/>
    <time>2026-05-08T22:05:16+00:00</time>
    <bound minlat="90.0" minlon="180.0" maxlat="-90.0" maxlon="-180.0"/>
  </metadata>
  <trk>
    <name/>
    <trkseg>
      <trkpt lat="45.097251" lon="4.436701">
        <time>1970-01-01T00:00:00+00:00</time>
        <ele>1114.0</ele>
      </trkpt>
      <trkpt lat="45.097218" lon="4.436571">
        <time>1970-01-01T00:00:00+00:00</time>
        <ele>1115.0</ele>
      </trkpt>
      <trkpt lat="45.097082" lon="4.436403">
        <time>1970-01-01T00:00:00+00:00</time>
        <ele>1116.0</ele>
      </trkpt>
      <trkpt lat="45.097186" lon="4.436306">
        <time>1970-01-01T00:00:00+00:00</time>
        <ele>1117.0</ele>
      </trkpt>
      <trkpt lat="45.097243" lon="4.436253">
        <time>1970-01-01T00:00:00+00:00</time>
        <ele>1118.0</ele>
      </trkpt>
      <trkpt lat="45.097038" lon="4.434981">
        <time>1970-01-01T00:00:00+00:00</time>
        <ele>1114.0</ele>
      </trkpt>
      <trkpt lat="45.097025" lon="4.433935">
        <time>1970-01-01T00:00:00+00:00</time>
        <ele>1113.0</ele>
      </trkpt>
      <trkpt lat="45.09697" lon="4.433245">
        <time>1970-01-01T00:00:00+00:00</time>
        <ele>1114.0</ele>
      </trkpt>
      <trkpt lat="45.097018" lon="4.432926">
        <time>1970-01-01T00:00:00+00:00</time>
        <ele>1113.0</ele>
      </trkpt>
      <trkpt lat="45.097141" lon="4.432687">
        <time>1970-01-01T00:00:00+00:00</time>
        <ele>1112.0</ele>
      </trkpt>
      <trkpt lat="45.0973" lon="4.432499">
        <time>1970-01-01T00:00:00+00:00</time>
        <ele>1114.0</ele>
      </trkpt>
      <trkpt lat="45.097778" lon="4.432588">
        <time>1970-01-01T00:00:00+00:00</time>
        <ele>1117.0</ele>
      </trkpt>
      <trkpt lat="45.098018" lon="4.432573">
        <time>1970-01-01T00:00:00+00:00</time>
        <ele>1119.0</ele>
      </trkpt>
      <trkpt lat="45.09849" lon="4.432388">
        <time>1970-01-01T00:00:00+00:00</time>
        <ele>1123.0</ele>
      </trkpt>
      <trkpt lat="45.098601" lon="4.432277">
        <time>1970-01-01T00:00:00+00:00</time>
        <ele>1124.0</ele>
      </trkpt>
      <trkpt lat="45.098785" lon="4.432026">
        <time>1970-01-01T00:00:00+00:00</time>
        <ele>1127.0</ele>
      </trkpt>
      <trkpt lat="45.100081" lon="4.430595">
        <time>1970-01-01T00:00:00+00:00</time>
        <ele>1131.0</ele>
      </trkpt>
      <trkpt lat="45.100396" lon="4.430128">
        <time>1970-01-01T00:00:00+00:00</time>
        <ele>1129.0</ele>
      </trkpt>
      <trkpt lat="45.10024" lon="4.42974">
        <time>1970-01-01T00:00:00+00:00</time>
        <ele>1134.0</ele>
      </trkpt>
      <trkpt lat="45.09986" lon="4.429442">
        <time>1970-01-01T00:00:00+00:00</time>
        <ele>1142.0</ele>
      </trkpt>
      <trkpt lat="45.099727" lon="4.429174">
        <time>1970-01-01T00:00:00+00:00</time>
        <ele>1146.0</ele>
      </trkpt>
      <trkpt lat="45.09962" lon="4.428825">
        <time>1970-01-01T00:00:00+00:00</time>
        <ele>1147.0</ele>
      </trkpt>
      <trkpt lat="45.098855" lon="4.427895">
        <time>1970-01-01T00:00:00+00:00</time>
        <ele>1150.0</ele>
      </trkpt>
      <trkpt lat="45.098684" lon="4.426334">
        <time>1970-01-01T00:00:00+00:00</time>
        <ele>1154.0</ele>
      </trkpt>
      <trkpt lat="45.098278" lon="4.424692">
        <time>1970-01-01T00:00:00+00:00</time>
        <ele>1156.0</ele>
      </trkpt>
      <trkpt lat="45.097943" lon="4.424168">
        <time>1970-01-01T00:00:00+00:00</time>
        <ele>1155.0</ele>
      </trkpt>
      <trkpt lat="45.097412" lon="4.423593">
        <time>1970-01-01T00:00:00+00:00</time>
        <ele>1151.0</ele>
      </trkpt>
      <trkpt lat="45.097161" lon="4.423152">
        <time>1970-01-01T00:00:00+00:00</time>
        <ele>1151.0</ele>
      </trkpt>
      <trkpt lat="45.097055" lon="4.422722">
        <time>1970-01-01T00:00:00+00:00</time>
        <ele>1150.0</ele>
      </trkpt>
      <trkpt lat="45.097378" lon="4.421904">
        <time>1970-01-01T00:00:00+00:00</time>
        <ele>1146.0</ele>
      </trkpt>
      <trkpt lat="45.097692" lon="4.421211">
        <time>1970-01-01T00:00:00+00:00</time>
        <ele>1144.0</ele>
      </trkpt>
      <trkpt lat="45.098074" lon="4.420033">
        <time>1970-01-01T00:00:00+00:00</time>
        <ele>1141.0</ele>
      </trkpt>
      <trkpt lat="45.098397" lon="4.419417">
        <time>1970-01-01T00:00:00+00:00</time>
        <ele>1139.0</ele>
      </trkpt>
      <trkpt lat="45.098745" lon="4.418987">
        <time>1970-01-01T00:00:00+00:00</time>
        <ele>1138.0</ele>
      </trkpt>
      <trkpt lat="45.099588" lon="4.418641">
        <time>1970-01-01T00:00:00+00:00</time>
        <ele>1137.0</ele>
      </trkpt>
      <trkpt lat="45.099769" lon="4.418585">
        <time>1970-01-01T00:00:00+00:00</time>
        <ele>1138.0</ele>
      </trkpt>
      <trkpt lat="45.099928" lon="4.418581">
        <time>1970-01-01T00:00:00+00:00</time>
        <ele>1140.0</ele>
      </trkpt>
      <trkpt lat="45.100333" lon="4.418514">
        <time>1970-01-01T00:00:00+00:00</time>
        <ele>1142.0</ele>
      </trkpt>
      <trkpt lat="45.100786" lon="4.418257">
        <time>1970-01-01T00:00:00+00:00</time>
        <ele>1143.0</ele>
      </trkpt>
      <trkpt lat="45.101029" lon="4.418053">
        <time>1970-01-01T00:00:00+00:00</time>
        <ele>1142.0</ele>
      </trkpt>
      <trkpt lat="45.101594" lon="4.417418">
        <time>1970-01-01T00:00:00+00:00</time>
        <ele>1138.0</ele>
      </trkpt>
      <trkpt lat="45.102055" lon="4.416797">
        <time>1970-01-01T00:00:00+00:00</time>
        <ele>1134.0</ele>
      </trkpt>
      <trkpt lat="45.102249" lon="4.416361">
        <time>1970-01-01T00:00:00+00:00</time>
        <ele>1133.0</ele>
      </trkpt>
      <trkpt lat="45.10221" lon="4.416641">
        <time>1970-01-01T00:00:00+00:00</time>
        <ele>1132.0</ele>
      </trkpt>
      <trkpt lat="45.102225" lon="4.416909">
        <time>1970-01-01T00:00:00+00:00</time>
        <ele>1131.0</ele>
      </trkpt>
      <trkpt lat="45.10246" lon="4.417478">
        <time>1970-01-01T00:00:00+00:00</time>
        <ele>1129.0</ele>
      </trkpt>
      <trkpt lat="45.10246" lon="4.417478">
        <time>1970-01-01T00:00:00+00:00</time>
        <ele>1129.0</ele>
      </trkpt>
      <trkpt lat="45.102511" lon="4.417602">
        <time>1970-01-01T00:00:00+00:00</time>
        <ele>1129.0</ele>
      </trkpt>
      <trkpt lat="45.103044" lon="4.417932">
        <time>1970-01-01T00:00:00+00:00</time>
        <ele>1127.0</ele>
      </trkpt>
      <trkpt lat="45.103362" lon="4.4182">
        <time>1970-01-01T00:00:00+00:00</time>
        <ele>1126.0</ele>
      </trkpt>
      <trkpt lat="45.103875" lon="4.418725">
        <time>1970-01-01T00:00:00+00:00</time>
        <ele>1123.0</ele>
      </trkpt>
      <trkpt lat="45.104208" lon="4.418952">
        <time>1970-01-01T00:00:00+00:00</time>
        <ele>1121.0</ele>
      </trkpt>
      <trkpt lat="45.10474" lon="4.419542">
        <time>1970-01-01T00:00:00+00:00</time>
        <ele>1118.0</ele>
      </trkpt>
      <trkpt lat="45.105082" lon="4.419757">
        <time>1970-01-01T00:00:00+00:00</time>
        <ele>1117.0</ele>
      </trkpt>
      <trkpt lat="45.105381" lon="4.419897">
        <time>1970-01-01T00:00:00+00:00</time>
        <ele>1116.0</ele>
      </trkpt>
      <trkpt lat="45.105626" lon="4.42011">
        <time>1970-01-01T00:00:00+00:00</time>
        <ele>1115.0</ele>
      </trkpt>
      <trkpt lat="45.106047" lon="4.420608">
        <time>1970-01-01T00:00:00+00:00</time>
        <ele>1109.0</ele>
      </trkpt>
      <trkpt lat="45.10644" lon="4.420929">
        <time>1970-01-01T00:00:00+00:00</time>
        <ele>1103.0</ele>
      </trkpt>
      <trkpt lat="45.10641" lon="4.421369">
        <time>1970-01-01T00:00:00+00:00</time>
        <ele>1097.0</ele>
      </trkpt>
      <trkpt lat="45.106296" lon="4.421646">
        <time>1970-01-01T00:00:00+00:00</time>
        <ele>1094.0</ele>
      </trkpt>
      <trkpt lat="45.105877" lon="4.422418">
        <time>1970-01-01T00:00:00+00:00</time>
        <ele>1084.0</ele>
      </trkpt>
      <trkpt lat="45.105707" lon="4.422808">
        <time>1970-01-01T00:00:00+00:00</time>
        <ele>1079.0</ele>
      </trkpt>
      <trkpt lat="45.105594" lon="4.423234">
        <time>1970-01-01T00:00:00+00:00</time>
        <ele>1073.0</ele>
      </trkpt>
      <trkpt lat="45.105668" lon="4.424321">
        <time>1970-01-01T00:00:00+00:00</time>
        <ele>1065.0</ele>
      </trkpt>
      <trkpt lat="45.105732" lon="4.424564">
        <time>1970-01-01T00:00:00+00:00</time>
        <ele>1064.0</ele>
      </trkpt>
      <trkpt lat="45.105855" lon="4.424773">
        <time>1970-01-01T00:00:00+00:00</time>
        <ele>1064.0</ele>
      </trkpt>
      <trkpt lat="45.105999" lon="4.424922">
        <time>1970-01-01T00:00:00+00:00</time>
        <ele>1064.0</ele>
      </trkpt>
      <trkpt lat="45.106017" lon="4.424982">
        <time>1970-01-01T00:00:00+00:00</time>
        <ele>1063.0</ele>
      </trkpt>
      <trkpt lat="45.105995" lon="4.425022">
        <time>1970-01-01T00:00:00+00:00</time>
        <ele>1061.0</ele>
      </trkpt>
      <trkpt lat="45.10566" lon="4.424982">
        <time>1970-01-01T00:00:00+00:00</time>
        <ele>1059.0</ele>
      </trkpt>
      <trkpt lat="45.10551" lon="4.424852">
        <time>1970-01-01T00:00:00+00:00</time>
        <ele>1057.0</ele>
      </trkpt>
      <trkpt lat="45.10533" lon="4.424361">
        <time>1970-01-01T00:00:00+00:00</time>
        <ele>1055.0</ele>
      </trkpt>
      <trkpt lat="45.105221" lon="4.42437">
        <time>1970-01-01T00:00:00+00:00</time>
        <ele>1054.0</ele>
      </trkpt>
      <trkpt lat="45.10516" lon="4.424301">
        <time>1970-01-01T00:00:00+00:00</time>
        <ele>1053.0</ele>
      </trkpt>
      <trkpt lat="45.104951" lon="4.423973">
        <time>1970-01-01T00:00:00+00:00</time>
        <ele>1052.0</ele>
      </trkpt>
      <trkpt lat="45.104667" lon="4.423945">
        <time>1970-01-01T00:00:00+00:00</time>
        <ele>1048.0</ele>
      </trkpt>
      <trkpt lat="45.104358" lon="4.423887">
        <time>1970-01-01T00:00:00+00:00</time>
        <ele>1051.0</ele>
      </trkpt>
      <trkpt lat="45.104111" lon="4.42392">
        <time>1970-01-01T00:00:00+00:00</time>
        <ele>1054.0</ele>
      </trkpt>
      <trkpt lat="45.103736" lon="4.423814">
        <time>1970-01-01T00:00:00+00:00</time>
        <ele>1052.0</ele>
      </trkpt>
      <trkpt lat="45.103176" lon="4.423521">
        <time>1970-01-01T00:00:00+00:00</time>
        <ele>1055.0</ele>
      </trkpt>
      <trkpt lat="45.102922" lon="4.423463">
        <time>1970-01-01T00:00:00+00:00</time>
        <ele>1057.0</ele>
      </trkpt>
      <trkpt lat="45.102604" lon="4.423497">
        <time>1970-01-01T00:00:00+00:00</time>
        <ele>1060.0</ele>
      </trkpt>
      <trkpt lat="45.102542" lon="4.423586">
        <time>1970-01-01T00:00:00+00:00</time>
        <ele>1062.0</ele>
      </trkpt>
      <trkpt lat="45.102535" lon="4.423729">
        <time>1970-01-01T00:00:00+00:00</time>
        <ele>1064.0</ele>
      </trkpt>
      <trkpt lat="45.102825" lon="4.424601">
        <time>1970-01-01T00:00:00+00:00</time>
        <ele>1070.0</ele>
      </trkpt>
      <trkpt lat="45.102888" lon="4.424925">
        <time>1970-01-01T00:00:00+00:00</time>
        <ele>1070.0</ele>
      </trkpt>
      <trkpt lat="45.102927" lon="4.425265">
        <time>1970-01-01T00:00:00+00:00</time>
        <ele>1072.0</ele>
      </trkpt>
      <trkpt lat="45.102937" lon="4.425566">
        <time>1970-01-01T00:00:00+00:00</time>
        <ele>1073.0</ele>
      </trkpt>
      <trkpt lat="45.102916" lon="4.425827">
        <time>1970-01-01T00:00:00+00:00</time>
        <ele>1075.0</ele>
      </trkpt>
      <trkpt lat="45.102835" lon="4.426117">
        <time>1970-01-01T00:00:00+00:00</time>
        <ele>1076.0</ele>
      </trkpt>
      <trkpt lat="45.102657" lon="4.426451">
        <time>1970-01-01T00:00:00+00:00</time>
        <ele>1081.0</ele>
      </trkpt>
      <trkpt lat="45.102167" lon="4.427173">
        <time>1970-01-01T00:00:00+00:00</time>
        <ele>1093.0</ele>
      </trkpt>
      <trkpt lat="45.101362" lon="4.428606">
        <time>1970-01-01T00:00:00+00:00</time>
        <ele>1113.0</ele>
      </trkpt>
      <trkpt lat="45.10117" lon="4.429113">
        <time>1970-01-01T00:00:00+00:00</time>
        <ele>1117.0</ele>
      </trkpt>
      <trkpt lat="45.100396" lon="4.430128">
        <time>1970-01-01T00:00:00+00:00</time>
        <ele>1129.0</ele>
      </trkpt>
      <trkpt lat="45.100081" lon="4.430595">
        <time>1970-01-01T00:00:00+00:00</time>
        <ele>1131.0</ele>
      </trkpt>
      <trkpt lat="45.098785" lon="4.432026">
        <time>1970-01-01T00:00:00+00:00</time>
        <ele>1127.0</ele>
      </trkpt>
      <trkpt lat="45.098601" lon="4.432277">
        <time>1970-01-01T00:00:00+00:00</time>
        <ele>1124.0</ele>
      </trkpt>
      <trkpt lat="45.09849" lon="4.432388">
        <time>1970-01-01T00:00:00+00:00</time>
        <ele>1123.0</ele>
      </trkpt>
      <trkpt lat="45.098018" lon="4.432573">
        <time>1970-01-01T00:00:00+00:00</time>
        <ele>1119.0</ele>
      </trkpt>
      <trkpt lat="45.097778" lon="4.432588">
        <time>1970-01-01T00:00:00+00:00</time>
        <ele>1117.0</ele>
      </trkpt>
      <trkpt lat="45.0973" lon="4.432499">
        <time>1970-01-01T00:00:00+00:00</time>
        <ele>1114.0</ele>
      </trkpt>
      <trkpt lat="45.097141" lon="4.432687">
        <time>1970-01-01T00:00:00+00:00</time>
        <ele>1112.0</ele>
      </trkpt>
      <trkpt lat="45.097018" lon="4.432926">
        <time>1970-01-01T00:00:00+00:00</time>
        <ele>1113.0</ele>
      </trkpt>
      <trkpt lat="45.09697" lon="4.433245">
        <time>1970-01-01T00:00:00+00:00</time>
        <ele>1114.0</ele>
      </trkpt>
      <trkpt lat="45.097025" lon="4.433935">
        <time>1970-01-01T00:00:00+00:00</time>
        <ele>1113.0</ele>
      </trkpt>
      <trkpt lat="45.097038" lon="4.434981">
        <time>1970-01-01T00:00:00+00:00</time>
        <ele>1114.0</ele>
      </trkpt>
      <trkpt lat="45.097243" lon="4.436253">
        <time>1970-01-01T00:00:00+00:00</time>
        <ele>1118.0</ele>
      </trkpt>
      <trkpt lat="45.097186" lon="4.436306">
        <time>1970-01-01T00:00:00+00:00</time>
        <ele>1117.0</ele>
      </trkpt>
      <trkpt lat="45.097082" lon="4.436403">
        <time>1970-01-01T00:00:00+00:00</time>
        <ele>1116.0</ele>
      </trkpt>
      <trkpt lat="45.097218" lon="4.436571">
        <time>1970-01-01T00:00:00+00:00</time>
        <ele>1115.0</ele>
      </trkpt>
      <trkpt lat="45.097251" lon="4.436701">
        <time>1970-01-01T00:00:00+00:00</time>
        <ele>1114.0</ele>
      </trkpt>
    </trkseg>
  </trk>
</gpx>
